owner,sensor,date,latitude,longitude,vertical_datum,direction_of_sea_water_velocity,sea_water_speed,upward_sea_water_velocity,qcFlag 
TABS,ioos:station:wmo:42043:1,2006-08-01T00:00:00Z,28.9818,-94.9186,2.0,43.22217464,11.6233601,-99999.0,'11111222,11111222,99999999' 
TABS,ioos:station:wmo:42043:1,2006-08-01T00:30:00Z,28.9818,-94.9186,2.0,50.5228794,10.94733301,-99999.0,'11111222,11111222,99999999' 
TABS,ioos:station:wmo:42043:1,2006-08-01T01:00:00Z,28.9818,-94.9186,2.0,43.46317239,9.754511777,-99999.0,'11133222,11111222,99999999' 
TABS,ioos:station:wmo:42043:1,2006-08-01T01:30:00Z,28.9818,-94.9186,2.0,42.08246505,12.08597948,-99999.0,'11111222,11111222,99999999' 
TABS,ioos:station:wmo:42043:1,2006-08-01T02:00:00Z,28.9818,-94.9186,2.0,40.92042493,9.740328537,-99999.0,'11133222,11111222,99999999' 
TABS,ioos:station:wmo:42043:1,2006-08-01T02:30:00Z,28.9818,-94.9186,2.0,45.29392648,8.273258125,-99999.0,'11133222,11111222,99999999' 
TABS,ioos:station:wmo:42043:1,2006-08-01T03:00:00Z,28.9818,-94.9186,2.0,33.66897073,7.485679662,-99999.0,'11133222,11111222,99999999' 
TABS,ioos:station:wmo:42043:1,2006-08-01T03:30:00Z,28.9818,-94.9186,2.0,25.69185793,7.335155077,-99999.0,'11133222,11111222,99999999' 
TABS,ioos:station:wmo:42043:1,2006-08-01T04:00:00Z,28.9818,-94.9186,2.0,39.61857076,5.880765256,-99999.0,'11133222,11111222,99999999' 
TABS,ioos:station:wmo:42043:1,2006-08-01T04:30:00Z,28.9818,-94.9186,2.0,13.85159708,4.511186097,-99999.0,'11133222,11111222,99999999' 
TABS,ioos:station:wmo:42043:1,2006-08-01T05:00:00Z,28.9818,-94.9186,2.0,33.38446227,5.197614838,-99999.0,'11133222,11111222,99999999' 
TABS,ioos:station:wmo:42043:1,2006-08-01T05:30:00Z,28.9818,-94.9186,2.0,20.70026493,5.120566375,-99999.0,'11133222,11111222,99999999' 
TABS,ioos:station:wmo:42043:1,2006-08-01T06:00:00Z,28.9818,-94.9186,2.0,51.88436833,5.42728293,-99999.0,'11133222,11111222,99999999' 
TABS,ioos:station:wmo:42043:1,2006-08-01T06:30:00Z,28.9818,-94.9186,2.0,23.74640044,6.456632249,-99999.0,'11133222,11111222,99999999' 
TABS,ioos:station:wmo:42043:1,2006-08-01T07:00:00Z,28.9818,-94.9186,2.0,3.415416269,6.21103051,-99999.0,'11133222,11111222,99999999' 
TABS,ioos:station:wmo:42043:1,2006-08-01T07:30:00Z,28.9818,-94.9186,2.0,31.35613248,7.014456501,-99999.0,'11133222,11111222,99999999' 
TABS,ioos:station:wmo:42043:1,2006-08-01T08:00:00Z,28.9818,-94.9186,2.0,39.83290299,8.086810249,-99999.0,'11133222,11111222,99999999' 
TABS,ioos:station:wmo:42043:1,2006-08-01T08:30:00Z,28.9818,-94.9186,2.0,38.75751916,9.168974861,-99999.0,'11133222,11111222,99999999' 
TABS,ioos:station:wmo:42043:1,2006-08-01T09:00:00Z,28.9818,-94.9186,2.0,25.29390156,9.876907411,-99999.0,'11133222,11111222,99999999' 
TABS,ioos:station:wmo:42043:1,2006-08-01T09:30:00Z,28.9818,-94.9186,2.0,33.33830407,9.93486789,-99999.0,'11133222,11111222,99999999' 
TABS,ioos:station:wmo:42043:1,2006-08-01T10:00:00Z,28.9818,-94.9186,2.0,27.55712805,10.59160517,-99999.0,'11111222,11111222,99999999' 
TABS,ioos:station:wmo:42043:1,2006-08-01T10:30:00Z,28.9818,-94.9186,2.0,31.0798384,10.16988692,-99999.0,'11111222,11111222,99999999' 
TABS,ioos:station:wmo:42043:1,2006-08-01T11:00:00Z,28.9818,-94.9186,2.0,29.47111372,8.821451128,-99999.0,'11133222,11111222,99999999' 
TABS,ioos:station:wmo:42043:1,2006-08-01T11:30:00Z,28.9818,-94.9186,2.0,38.35147559,8.122715063,-99999.0,'11133222,11111222,99999999' 
TABS,ioos:station:wmo:42043:1,2006-08-01T12:00:00Z,28.9818,-94.9186,2.0,29.96562037,7.087397266,-99999.0,'11133222,11111222,99999999' 
TABS,ioos:station:wmo:42043:1,2006-08-01T12:30:00Z,28.9818,-94.9186,2.0,40.649605,7.736827515,-99999.0,'11133222,11111222,99999999' 
TABS,ioos:station:wmo:42043:1,2006-08-01T13:00:00Z,28.9818,-94.9186,2.0,60.31141557,6.31957277,-99999.0,'11133222,11111222,99999999' 
TABS,ioos:station:wmo:42043:1,2006-08-01T13:30:00Z,28.9818,-94.9186,2.0,18.49561842,2.994678614,-99999.0,'11133222,11111222,99999999' 
TABS,ioos:station:wmo:42043:1,2006-08-01T14:00:00Z,28.9818,-94.9186,2.0,32.78441466,4.912484097,-99999.0,'11133222,11111222,99999999' 
TABS,ioos:station:wmo:42043:1,2006-08-01T14:30:00Z,28.9818,-94.9186,2.0,41.47547841,3.910626548,-99999.0,'11133222,11111222,99999999' 
TABS,ioos:station:wmo:42043:1,2006-08-01T15:00:00Z,28.9818,-94.9186,2.0,40.75832273,2.772381648,-99999.0,'11133222,11111222,99999999' 
TABS,ioos:station:wmo:42043:1,2006-08-01T15:30:00Z,28.9818,-94.9186,2.0,31.3242398,4.635698437,-99999.0,'11133222,11111222,99999999' 
TABS,ioos:station:wmo:42043:1,2006-08-01T16:00:00Z,28.9818,-94.9186,2.0,20.71983109,4.91808906,-99999.0,'11133222,11111222,99999999' 
TABS,ioos:station:wmo:42043:1,2006-08-01T16:30:00Z,28.9818,-94.9186,2.0,4.348207839,6.067462402,-99999.0,'11133222,11111222,99999999' 
TABS,ioos:station:wmo:42043:1,2006-08-01T17:00:00Z,28.9818,-94.9186,2.0,17.41208838,5.31347344,-99999.0,'11133222,11111222,99999999' 
TABS,ioos:station:wmo:42043:1,2006-08-01T17:30:00Z,28.9818,-94.9186,2.0,21.77658721,8.517845972,-99999.0,'11133222,11111222,99999999' 
TABS,ioos:station:wmo:42043:1,2006-08-01T18:00:00Z,28.9818,-94.9186,2.0,26.90809646,8.21993309,-99999.0,'11133222,11111222,99999999' 
TABS,ioos:station:wmo:42043:1,2006-08-01T18:30:00Z,28.9818,-94.9186,2.0,21.33440457,9.565484828,-99999.0,'11133222,11111222,99999999' 
TABS,ioos:station:wmo:42043:1,2006-08-01T19:00:00Z,28.9818,-94.9186,2.0,12.21703744,10.16008858,-99999.0,'11111222,11111222,99999999' 
TABS,ioos:station:wmo:42043:1,2006-08-01T19:30:00Z,28.9818,-94.9186,2.0,19.26982811,11.93886511,-99999.0,'11111222,11111222,99999999' 
TABS,ioos:station:wmo:42043:1,2006-08-01T20:00:00Z,28.9818,-94.9186,2.0,16.6898055,11.42112079,-99999.0,'11111222,11111222,99999999' 
TABS,ioos:station:wmo:42043:1,2006-08-01T20:30:00Z,28.9818,-94.9186,2.0,21.00629805,13.11135386,-99999.0,'11111222,11111222,99999999' 
TABS,ioos:station:wmo:42043:1,2006-08-01T21:00:00Z,28.9818,-94.9186,2.0,25.60409358,12.26432224,-99999.0,'11111222,11111222,99999999' 
TABS,ioos:station:wmo:42043:1,2006-08-01T21:30:00Z,28.9818,-94.9186,2.0,24.6782348,11.54437092,-99999.0,'11111222,11111222,99999999' 
TABS,ioos:station:wmo:42043:1,2006-08-01T22:00:00Z,28.9818,-94.9186,2.0,27.67825798,11.28085546,-99999.0,'11111222,11111222,99999999' 
TABS,ioos:station:wmo:42043:1,2006-08-01T22:30:00Z,28.9818,-94.9186,2.0,27.44735531,10.45709329,-99999.0,'11111222,11111222,99999999' 
TABS,ioos:station:wmo:42043:1,2006-08-01T23:00:00Z,28.9818,-94.9186,2.0,29.33979723,10.34723635,-99999.0,'11111222,11111222,99999999' 
TABS,ioos:station:wmo:42043:1,2006-08-01T23:30:00Z,28.9818,-94.9186,2.0,28.35663871,10.44306947,-99999.0,'11111222,11111222,99999999' 
TABS,ioos:station:wmo:42043:1,2006-08-02T00:00:00Z,28.9818,-94.9186,2.0,35.38099029,11.46787251,-99999.0,'11111222,11111222,99999999' 
TABS,ioos:station:wmo:42043:1,2006-08-02T00:30:00Z,28.9818,-94.9186,2.0,25.94961381,11.65505899,-99999.0,'11111222,11111222,99999999' 
TABS,ioos:station:wmo:42043:1,2006-08-02T01:00:00Z,28.9818,-94.9186,2.0,24.8106444,9.055848939,-99999.0,'11133222,11111222,99999999' 
TABS,ioos:station:wmo:42043:1,2006-08-02T01:30:00Z,28.9818,-94.9186,2.0,39.86991323,10.28008755,-99999.0,'11111222,11111222,99999999' 
TABS,ioos:station:wmo:42043:1,2006-08-02T02:00:00Z,28.9818,-94.9186,2.0,22.5021304,9.720020576,-99999.0,'11133222,11111222,99999999' 
TABS,ioos:station:wmo:42043:1,2006-08-02T02:30:00Z,28.9818,-94.9186,2.0,39.93439147,9.68985552,-99999.0,'11133222,11111222,99999999' 
TABS,ioos:station:wmo:42043:1,2006-08-02T03:00:00Z,28.9818,-94.9186,2.0,24.13886936,7.922783602,-99999.0,'11133222,11111222,99999999' 
TABS,ioos:station:wmo:42043:1,2006-08-02T03:30:00Z,28.9818,-94.9186,2.0,39.32270184,4.860452654,-99999.0,'11133222,11111222,99999999' 
TABS,ioos:station:wmo:42043:1,2006-08-02T04:00:00Z,28.9818,-94.9186,2.0,29.02612265,5.832572331,-99999.0,'11133222,11111222,99999999' 
TABS,ioos:station:wmo:42043:1,2006-08-02T04:30:00Z,28.9818,-94.9186,2.0,15.04001296,8.16985312,-99999.0,'11133222,11111222,99999999' 
TABS,ioos:station:wmo:42043:1,2006-08-02T05:00:00Z,28.9818,-94.9186,2.0,44.07178481,6.110204579,-99999.0,'11133222,11111222,99999999' 
TABS,ioos:station:wmo:42043:1,2006-08-02T05:30:00Z,28.9818,-94.9186,2.0,21.38097227,4.553372377,-99999.0,'11133222,11111222,99999999' 
TABS,ioos:station:wmo:42043:1,2006-08-02T06:00:00Z,28.9818,-94.9186,2.0,39.28952545,1.137013632,-99999.0,'11133222,11111222,99999999' 
TABS,ioos:station:wmo:42043:1,2006-08-02T06:30:00Z,28.9818,-94.9186,2.0,88.29527567,1.680743883,-99999.0,'11133222,11111222,99999999' 
TABS,ioos:station:wmo:42043:1,2006-08-02T07:00:00Z,28.9818,-94.9186,2.0,355.073112,1.164302366,-99999.0,'11133222,11111222,99999999' 
TABS,ioos:station:wmo:42043:1,2006-08-02T07:30:00Z,28.9818,-94.9186,2.0,29.65000463,2.243791434,-99999.0,'11133222,11111222,99999999' 
TABS,ioos:station:wmo:42043:1,2006-08-02T08:00:00Z,28.9818,-94.9186,2.0,23.59697243,3.022747095,-99999.0,'11133222,11111222,99999999' 
TABS,ioos:station:wmo:42043:1,2006-08-02T08:30:00Z,28.9818,-94.9186,2.0,333.1857499,3.081330881,-99999.0,'11133222,11111222,99999999' 
TABS,ioos:station:wmo:42043:1,2006-08-02T09:00:00Z,28.9818,-94.9186,2.0,75.44246029,2.665576861,-99999.0,'11133222,11111222,99999999' 
TABS,ioos:station:wmo:42043:1,2006-08-02T09:30:00Z,28.9818,-94.9186,2.0,63.2854143,5.138501727,-99999.0,'11133222,11111222,99999999' 
TABS,ioos:station:wmo:42043:1,2006-08-02T10:00:00Z,28.9818,-94.9186,2.0,41.84677151,4.241992456,-99999.0,'11133222,11111222,99999999' 
TABS,ioos:station:wmo:42043:1,2006-08-02T10:30:00Z,28.9818,-94.9186,2.0,24.0477419,4.785331754,-99999.0,'11133222,11111222,99999999' 
TABS,ioos:station:wmo:42043:1,2006-08-02T11:00:00Z,28.9818,-94.9186,2.0,44.65180772,4.65284859,-99999.0,'11133222,11111222,99999999' 
TABS,ioos:station:wmo:42043:1,2006-08-02T11:30:00Z,28.9818,-94.9186,2.0,34.15163067,4.132650481,-99999.0,'11133222,11111222,99999999' 
TABS,ioos:station:wmo:42043:1,2006-08-02T12:00:00Z,28.9818,-94.9186,2.0,41.71401093,2.960574269,-99999.0,'11133222,11111222,99999999' 
TABS,ioos:station:wmo:42043:1,2006-08-02T12:30:00Z,28.9818,-94.9186,2.0,50.68501492,3.140859755,-99999.0,'11133222,11111222,99999999' 
TABS,ioos:station:wmo:42043:1,2006-08-02T13:00:00Z,28.9818,-94.9186,2.0,57.96655727,4.317371886,-99999.0,'11133222,11111222,99999999' 
TABS,ioos:station:wmo:42043:1,2006-08-02T13:30:00Z,28.9818,-94.9186,2.0,67.89991821,1.780842497,-99999.0,'11133222,11111222,99999999' 
TABS,ioos:station:wmo:42043:1,2006-08-02T14:00:00Z,28.9818,-94.9186,2.0,58.82872386,3.786713615,-99999.0,'11133222,11111222,99999999' 
TABS,ioos:station:wmo:42043:1,2006-08-02T14:30:00Z,28.9818,-94.9186,2.0,40.99518847,5.365901602,-99999.0,'11133222,11111222,99999999' 
TABS,ioos:station:wmo:42043:1,2006-08-02T15:00:00Z,28.9818,-94.9186,2.0,12.43772962,4.085890356,-99999.0,'11133222,11111222,99999999' 
TABS,ioos:station:wmo:42043:1,2006-08-02T15:30:00Z,28.9818,-94.9186,2.0,359.4185488,3.94020304,-99999.0,'11133222,11144222,99999999' 
TABS,ioos:station:wmo:42043:1,2006-08-02T16:00:00Z,28.9818,-94.9186,2.0,18.6361527,4.506273405,-99999.0,'11133222,11111222,99999999' 
TABS,ioos:station:wmo:42043:1,2006-08-02T16:30:00Z,28.9818,-94.9186,2.0,315.4444591,1.824390309,-99999.0,'11133222,11111222,99999999' 
TABS,ioos:station:wmo:42043:1,2006-08-02T17:00:00Z,28.9818,-94.9186,2.0,1.670859823,2.401020616,-99999.0,'11133222,11111222,99999999' 
TABS,ioos:station:wmo:42043:1,2006-08-02T17:30:00Z,28.9818,-94.9186,2.0,25.75337223,2.209456947,-99999.0,'11133222,11111222,99999999' 
TABS,ioos:station:wmo:42043:1,2006-08-02T18:00:00Z,28.9818,-94.9186,2.0,317.0457194,4.358554806,-99999.0,'11133222,11111222,99999999' 
TABS,ioos:station:wmo:42043:1,2006-08-02T18:30:00Z,28.9818,-94.9186,2.0,324.8660996,4.291969245,-99999.0,'11133222,11111222,99999999' 
TABS,ioos:station:wmo:42043:1,2006-08-02T19:00:00Z,28.9818,-94.9186,2.0,344.2157247,6.35981918,-99999.0,'11133222,11111222,99999999' 
TABS,ioos:station:wmo:42043:1,2006-08-02T19:30:00Z,28.9818,-94.9186,2.0,352.2474948,6.226917375,-99999.0,'11133222,11111222,99999999' 
TABS,ioos:station:wmo:42043:1,2006-08-02T20:00:00Z,28.9818,-94.9186,2.0,358.4277837,5.101921207,-99999.0,'11133222,11111222,99999999' 
TABS,ioos:station:wmo:42043:1,2006-08-02T20:30:00Z,28.9818,-94.9186,2.0,4.292978114,7.882112661,-99999.0,'11133222,11111222,99999999' 
TABS,ioos:station:wmo:42043:1,2006-08-02T21:00:00Z,28.9818,-94.9186,2.0,2.906467158,8.48090797,-99999.0,'11133222,11111222,99999999' 
TABS,ioos:station:wmo:42043:1,2006-08-02T21:30:00Z,28.9818,-94.9186,2.0,12.74940275,10.15025123,-99999.0,'11111222,11111222,99999999' 
TABS,ioos:station:wmo:42043:1,2006-08-02T22:00:00Z,28.9818,-94.9186,2.0,11.9365215,12.37762901,-99999.0,'11111222,11111222,99999999' 
TABS,ioos:station:wmo:42043:1,2006-08-02T22:30:00Z,28.9818,-94.9186,2.0,12.34472795,12.81631772,-99999.0,'11111222,11111222,99999999' 
TABS,ioos:station:wmo:42043:1,2006-08-02T23:00:00Z,28.9818,-94.9186,2.0,22.60668243,13.21538497,-99999.0,'11111222,11111222,99999999' 
TABS,ioos:station:wmo:42043:1,2006-08-02T23:30:00Z,28.9818,-94.9186,2.0,32.5392677,12.28908866,-99999.0,'11111222,11111222,99999999' 
TABS,ioos:station:wmo:42043:1,2006-08-03T00:00:00Z,28.9818,-94.9186,2.0,26.31999853,12.53998405,-99999.0,'11111222,11111222,99999999' 
TABS,ioos:station:wmo:42043:1,2006-08-03T00:30:00Z,28.9818,-94.9186,2.0,21.41891686,14.45856148,-99999.0,'11111222,11111222,99999999' 
TABS,ioos:station:wmo:42043:1,2006-08-03T01:00:00Z,28.9818,-94.9186,2.0,35.14179828,11.60527897,-99999.0,'11111222,11111222,99999999' 
TABS,ioos:station:wmo:42043:1,2006-08-03T01:30:00Z,28.9818,-94.9186,2.0,36.1504113,15.76524342,-99999.0,'11111222,11111222,99999999' 
TABS,ioos:station:wmo:42043:1,2006-08-03T02:00:00Z,28.9818,-94.9186,2.0,29.0816803,14.46341937,-99999.0,'11111222,11111222,99999999' 
TABS,ioos:station:wmo:42043:1,2006-08-03T02:30:00Z,28.9818,-94.9186,2.0,22.89070859,14.65400969,-99999.0,'11111222,11111222,99999999' 
TABS,ioos:station:wmo:42043:1,2006-08-03T03:00:00Z,28.9818,-94.9186,2.0,37.32177265,14.71245731,-99999.0,'11111222,11111222,99999999' 
TABS,ioos:station:wmo:42043:1,2006-08-03T03:30:00Z,28.9818,-94.9186,2.0,29.91518272,14.61755794,-99999.0,'11111222,11111222,99999999' 
TABS,ioos:station:wmo:42043:1,2006-08-03T04:00:00Z,28.9818,-94.9186,2.0,46.17814364,9.286274818,-99999.0,'11133222,11111222,99999999' 
TABS,ioos:station:wmo:42043:1,2006-08-03T04:30:00Z,28.9818,-94.9186,2.0,37.51140553,10.36264928,-99999.0,'11111222,11111222,99999999' 
TABS,ioos:station:wmo:42043:1,2006-08-03T05:00:00Z,28.9818,-94.9186,2.0,30.2077523,8.447040902,-99999.0,'11133222,11111222,99999999' 
TABS,ioos:station:wmo:42043:1,2006-08-03T05:30:00Z,28.9818,-94.9186,2.0,45.71754451,7.906073615,-99999.0,'11133222,11111222,99999999' 
TABS,ioos:station:wmo:42043:1,2006-08-03T06:00:00Z,28.9818,-94.9186,2.0,44.41187492,10.33137455,-99999.0,'11111222,11111222,99999999' 
TABS,ioos:station:wmo:42043:1,2006-08-03T06:30:00Z,28.9818,-94.9186,2.0,38.71034241,7.099661964,-99999.0,'11133222,11111222,99999999' 
TABS,ioos:station:wmo:42043:1,2006-08-03T07:00:00Z,28.9818,-94.9186,2.0,41.5086288,6.850437942,-99999.0,'11133222,11111222,99999999' 
TABS,ioos:station:wmo:42043:1,2006-08-03T07:30:00Z,28.9818,-94.9186,2.0,43.76692563,3.614152736,-99999.0,'11133222,11111222,99999999' 
TABS,ioos:station:wmo:42043:1,2006-08-03T08:00:00Z,28.9818,-94.9186,2.0,69.10228337,2.354909765,-99999.0,'11133222,11111222,99999999' 
TABS,ioos:station:wmo:42043:1,2006-08-03T08:30:00Z,28.9818,-94.9186,2.0,94.11818007,1.253235812,-99999.0,'11133222,11111222,99999999' 
TABS,ioos:station:wmo:42043:1,2006-08-03T09:00:00Z,28.9818,-94.9186,2.0,19.24694346,3.12464398,-99999.0,'11133222,11111222,99999999' 
TABS,ioos:station:wmo:42043:1,2006-08-03T09:30:00Z,28.9818,-94.9186,2.0,327.600446,1.847620091,-99999.0,'11133222,11111222,99999999' 
TABS,ioos:station:wmo:42043:1,2006-08-03T10:00:00Z,28.9818,-94.9186,2.0,327.5016405,1.600656115,-99999.0,'11133222,11111222,99999999' 
TABS,ioos:station:wmo:42043:1,2006-08-03T10:30:00Z,28.9818,-94.9186,2.0,14.43329895,3.851558126,-99999.0,'11133222,11111222,99999999' 
TABS,ioos:station:wmo:42043:1,2006-08-03T11:00:00Z,28.9818,-94.9186,2.0,16.87289491,3.479798845,-99999.0,'11133222,11111222,99999999' 
TABS,ioos:station:wmo:42043:1,2006-08-03T11:30:00Z,28.9818,-94.9186,2.0,45.32875734,3.698229306,-99999.0,'11133222,11111222,99999999' 
TABS,ioos:station:wmo:42043:1,2006-08-03T12:00:00Z,28.9818,-94.9186,2.0,40.46234333,4.915658654,-99999.0,'11133222,11111222,99999999' 
TABS,ioos:station:wmo:42043:1,2006-08-03T12:30:00Z,28.9818,-94.9186,2.0,43.06704192,7.336872631,-99999.0,'11133222,11111222,99999999' 
TABS,ioos:station:wmo:42043:1,2006-08-03T13:00:00Z,28.9818,-94.9186,2.0,36.32695146,3.798170612,-99999.0,'11133222,11111222,99999999' 
TABS,ioos:station:wmo:42043:1,2006-08-03T13:30:00Z,28.9818,-94.9186,2.0,45.84015713,4.822986627,-99999.0,'11133222,11111222,99999999' 
TABS,ioos:station:wmo:42043:1,2006-08-03T14:00:00Z,28.9818,-94.9186,2.0,27.26484019,3.296209945,-99999.0,'11133222,11111222,99999999' 
TABS,ioos:station:wmo:42043:1,2006-08-03T14:30:00Z,28.9818,-94.9186,2.0,338.682348,4.401136217,-99999.0,'11133222,11111222,99999999' 
TABS,ioos:station:wmo:42043:1,2006-08-03T15:00:00Z,28.9818,-94.9186,2.0,348.8662373,3.832127347,-99999.0,'11133222,11111222,99999999' 
TABS,ioos:station:wmo:42043:1,2006-08-03T15:30:00Z,28.9818,-94.9186,2.0,351.9955003,5.170377162,-99999.0,'11133222,11111222,99999999' 
TABS,ioos:station:wmo:42043:1,2006-08-03T16:00:00Z,28.9818,-94.9186,2.0,5.427010267,6.027014186,-99999.0,'11133222,11111222,99999999' 
TABS,ioos:station:wmo:42043:1,2006-08-03T16:30:00Z,28.9818,-94.9186,2.0,341.2504967,4.604345773,-99999.0,'11133222,11111222,99999999' 
TABS,ioos:station:wmo:42043:1,2006-08-03T17:00:00Z,28.9818,-94.9186,2.0,336.4025343,4.14675777,-99999.0,'11133222,11111222,99999999' 
TABS,ioos:station:wmo:42043:1,2006-08-03T17:30:00Z,28.9818,-94.9186,2.0,308.1079087,3.888907302,-99999.0,'11133222,11111222,99999999' 
TABS,ioos:station:wmo:42043:1,2006-08-03T18:00:00Z,28.9818,-94.9186,2.0,301.7893454,3.929440164,-99999.0,'11133222,11111222,99999999' 
TABS,ioos:station:wmo:42043:1,2006-08-03T18:30:00Z,28.9818,-94.9186,2.0,327.0104392,6.354565288,-99999.0,'11133222,11111222,99999999' 
TABS,ioos:station:wmo:42043:1,2006-08-03T19:00:00Z,28.9818,-94.9186,2.0,320.4050135,5.930708221,-99999.0,'11133222,11111222,99999999' 
TABS,ioos:station:wmo:42043:1,2006-08-03T19:30:00Z,28.9818,-94.9186,2.0,313.5510679,5.312071159,-99999.0,'11133222,11111222,99999999' 
TABS,ioos:station:wmo:42043:1,2006-08-03T20:00:00Z,28.9818,-94.9186,2.0,327.8197811,5.895735747,-99999.0,'11133222,11111222,99999999' 
TABS,ioos:station:wmo:42043:1,2006-08-03T20:30:00Z,28.9818,-94.9186,2.0,329.3496142,2.196929676,-99999.0,'11133222,11111222,99999999' 
TABS,ioos:station:wmo:42043:1,2006-08-03T21:00:00Z,28.9818,-94.9186,2.0,334.2278854,5.818805719,-99999.0,'11133222,11111222,99999999' 
TABS,ioos:station:wmo:42043:1,2006-08-03T21:30:00Z,28.9818,-94.9186,2.0,353.1778538,8.923183288,-99999.0,'11133222,11111222,99999999' 
TABS,ioos:station:wmo:42043:1,2006-08-03T22:00:00Z,28.9818,-94.9186,2.0,339.5016896,8.167135361,-99999.0,'11133222,11111222,99999999' 
TABS,ioos:station:wmo:42043:1,2006-08-03T22:30:00Z,28.9818,-94.9186,2.0,346.8388166,7.466116795,-99999.0,'11133222,11111222,99999999' 
TABS,ioos:station:wmo:42043:1,2006-08-03T23:00:00Z,28.9818,-94.9186,2.0,4.603456391,12.46019261,-99999.0,'11111222,11111222,99999999' 
TABS,ioos:station:wmo:42043:1,2006-08-03T23:30:00Z,28.9818,-94.9186,2.0,4.686896098,11.74928508,-99999.0,'11111222,11111222,99999999' 
TABS,ioos:station:wmo:42043:1,2006-08-04T00:00:00Z,28.9818,-94.9186,2.0,6.50701741,12.53071826,-99999.0,'11111222,11111222,99999999' 
TABS,ioos:station:wmo:42043:1,2006-08-04T00:30:00Z,28.9818,-94.9186,2.0,11.06170087,12.66529905,-99999.0,'11111222,11111222,99999999' 
TABS,ioos:station:wmo:42043:1,2006-08-04T01:00:00Z,28.9818,-94.9186,2.0,356.889969,10.50547476,-99999.0,'11111222,11111222,99999999' 
TABS,ioos:station:wmo:42043:1,2006-08-04T01:30:00Z,28.9818,-94.9186,2.0,9.82439537,8.849774008,-99999.0,'11133222,11111222,99999999' 
TABS,ioos:station:wmo:42043:1,2006-08-04T02:00:00Z,28.9818,-94.9186,2.0,1.91952908,13.13737036,-99999.0,'11111222,11111222,99999999' 
TABS,ioos:station:wmo:42043:1,2006-08-04T02:30:00Z,28.9818,-94.9186,2.0,12.8145048,12.62442474,-99999.0,'11111222,11111222,99999999' 
TABS,ioos:station:wmo:42043:1,2006-08-04T03:00:00Z,28.9818,-94.9186,2.0,10.51022925,13.48625967,-99999.0,'11111222,11111222,99999999' 
TABS,ioos:station:wmo:42043:1,2006-08-04T03:30:00Z,28.9818,-94.9186,2.0,5.532404847,11.82507928,-99999.0,'11111222,11111222,99999999' 
TABS,ioos:station:wmo:42043:1,2006-08-04T04:00:00Z,28.9818,-94.9186,2.0,18.3216596,7.984766747,-99999.0,'11133222,11111222,99999999' 
TABS,ioos:station:wmo:42043:1,2006-08-04T04:30:00Z,28.9818,-94.9186,2.0,3.743771453,9.189608262,-99999.0,'11133222,11111222,99999999' 
TABS,ioos:station:wmo:42043:1,2006-08-04T05:00:00Z,28.9818,-94.9186,2.0,13.01312854,9.370645655,-99999.0,'11133222,11111222,99999999' 
TABS,ioos:station:wmo:42043:1,2006-08-04T05:30:00Z,28.9818,-94.9186,2.0,12.74968912,7.884395982,-99999.0,'11133222,11111222,99999999' 
TABS,ioos:station:wmo:42043:1,2006-08-04T06:00:00Z,28.9818,-94.9186,2.0,13.43120792,6.88839604,-99999.0,'11133222,11111222,99999999' 
TABS,ioos:station:wmo:42043:1,2006-08-04T06:30:00Z,28.9818,-94.9186,2.0,17.22588898,4.795080813,-99999.0,'11133222,11111222,99999999' 
TABS,ioos:station:wmo:42043:1,2006-08-04T07:00:00Z,28.9818,-94.9186,2.0,2.703148176,6.997785364,-99999.0,'11133222,11111222,99999999' 
TABS,ioos:station:wmo:42043:1,2006-08-04T07:30:00Z,28.9818,-94.9186,2.0,31.5426188,2.88646843,-99999.0,'11133222,11111222,99999999' 
TABS,ioos:station:wmo:42043:1,2006-08-04T08:00:00Z,28.9818,-94.9186,2.0,17.87886525,0.651459899,-99999.0,'11133222,11111222,99999999' 
TABS,ioos:station:wmo:42043:1,2006-08-04T08:30:00Z,28.9818,-94.9186,2.0,4.236595351,2.978137002,-99999.0,'11133222,11111222,99999999' 
TABS,ioos:station:wmo:42043:1,2006-08-04T09:00:00Z,28.9818,-94.9186,2.0,44.90011293,4.051728026,-99999.0,'11133222,11111222,99999999' 
TABS,ioos:station:wmo:42043:1,2006-08-04T09:30:00Z,28.9818,-94.9186,2.0,33.06386209,4.820632739,-99999.0,'11133222,11111222,99999999' 
TABS,ioos:station:wmo:42043:1,2006-08-04T10:00:00Z,28.9818,-94.9186,2.0,45.2120487,5.734675231,-99999.0,'11133222,11111222,99999999' 
TABS,ioos:station:wmo:42043:1,2006-08-04T10:30:00Z,28.9818,-94.9186,2.0,60.29920257,6.458490536,-99999.0,'11133222,11111222,99999999' 
TABS,ioos:station:wmo:42043:1,2006-08-04T11:00:00Z,28.9818,-94.9186,2.0,69.78087365,4.976675597,-99999.0,'11133222,11111222,99999999' 
TABS,ioos:station:wmo:42043:1,2006-08-04T11:30:00Z,28.9818,-94.9186,2.0,81.11484535,7.834009191,-99999.0,'11133222,11111222,99999999' 
TABS,ioos:station:wmo:42043:1,2006-08-04T12:00:00Z,28.9818,-94.9186,2.0,66.00225388,6.589597863,-99999.0,'11133222,11111222,99999999' 
TABS,ioos:station:wmo:42043:1,2006-08-04T12:30:00Z,28.9818,-94.9186,2.0,68.76715736,5.0530189,-99999.0,'11133222,11111222,99999999' 
TABS,ioos:station:wmo:42043:1,2006-08-04T13:00:00Z,28.9818,-94.9186,2.0,85.52863428,4.232883178,-99999.0,'11133222,11111222,99999999' 
TABS,ioos:station:wmo:42043:1,2006-08-04T13:30:00Z,28.9818,-94.9186,2.0,82.47300644,3.358943286,-99999.0,'11133222,11111222,99999999' 
TABS,ioos:station:wmo:42043:1,2006-08-04T14:00:00Z,28.9818,-94.9186,2.0,75.84959789,4.867699662,-99999.0,'11133222,11111222,99999999' 
TABS,ioos:station:wmo:42043:1,2006-08-04T14:30:00Z,28.9818,-94.9186,2.0,39.80568847,3.748919844,-99999.0,'11133222,11111222,99999999' 
TABS,ioos:station:wmo:42043:1,2006-08-04T15:00:00Z,28.9818,-94.9186,2.0,61.50912862,3.060669861,-99999.0,'11133222,11111222,99999999' 
TABS,ioos:station:wmo:42043:1,2006-08-04T15:30:00Z,28.9818,-94.9186,2.0,80.04939658,2.893527259,-99999.0,'11133222,11111222,99999999' 
TABS,ioos:station:wmo:42043:1,2006-08-04T16:00:00Z,28.9818,-94.9186,2.0,108.575681,2.574101785,-99999.0,'11133222,11111222,99999999' 